FW1310 Weather Reports


time (UTC)temp
C
wind
direction
speed
KPH
gust
KPH
rain 1hr
cm
rain 24hr
cm
rain mn
cm
humidity
%
barometer
mb
20260905040003 27 194 4.8 9.7 0.00 0.03 0.03 74 997.9
20260905035003 27 158 4.8 8.0 0.00 0.03 0.03 73 997.7
20260905034503 27 151 3.2 8.0 0.00 0.03 0.03 73 997.9
20260905034003 27 152 3.2 11.3 0.00 0.03 0.03 73 997.9
20260905032503 27 133 3.2 9.7 0.00 0.03 0.03 74 997.9
20260905031503 28 172 3.2 8.0 0.00 0.03 0.03 74 997.8
20260905030503 28 142 1.6 4.8 0.00 0.03 0.03 74 997.5
20260905030003 28 164 4.8 8.0 0.00 0.03 0.03 74 997.6
20260905025503 28 192 4.8 8.0 0.00 0.03 0.03 74 997.7
20260905024503 28 150 4.8 8.0 0.00 0.03 0.03 74 997.5
20260905024003 28 141 3.2 4.8 0.00 0.03 0.03 73 997.5
20260905023503 28 160 3.2 9.7 0.00 0.03 0.03 73 997.4
20260905023004 28 179 4.8 8.0 0.00 0.03 0.03 73 997.4
20260905022503 28 168 3.2 8.0 0.00 0.03 0.03 73 997.3
20260905022003 28 171 4.8 8.0 0.00 0.03 0.03 73 997.2
20260905021503 28 132 3.2 8.0 0.00 0.03 0.03 73 997.2
20260905021002 28 174 3.2 8.0 0.00 0.03 0.03 74 997.3
20260905020502 28 140 3.2 8.0 0.00 0.03 0.03 75 997.2
20260905015503 28 163 4.8 9.7 0.00 0.03 0.03 75 997.1
20260905015003 28 153 3.2 8.0 0.00 0.03 0.03 74 997.1
20260905014503 28 142 3.2 9.7 0.00 0.03 0.03 74 997.0
20260905014003 28 140 3.2 9.7 0.00 0.03 0.03 74 996.8
20260905013503 28 139 1.6 9.7 0.00 0.03 0.03 74 996.8
20260905013003 28 139 3.2 8.0 0.00 0.03 0.03 73 996.8
20260905012503 28 182 4.8 8.0 0.00 0.03 0.03 73 996.7
20260905011502 29 147 3.2 11.3 0.00 0.03 0.03 72 996.8
20260905011003 29 158 3.2 9.7 0.00 0.03 0.03 71 996.5
20260905010503 29 149 3.2 9.7 0.00 0.03 0.03 71 996.6
20260905010003 29 145 3.2 11.3 0.00 0.03 0.03 70 996.6
20260905005003 30 119 3.2 8.0 0.00 0.03 0.03 69 996.7
20260905004502 30 116 1.6 11.3 0.00 0.03 0.03 69 996.6
20260905003003 30 180 8.0 14.5 0.00 0.03 0.03 68 996.4
20260905002503 30 167 4.8 14.5 0.00 0.03 0.03 67 996.3
20260905002003 30 104 3.2 12.9 0.00 0.03 0.03 66 996.3
20260905001503 30 153 8.0 16.1 0.00 0.03 0.03 65 996.2
20260905001003 31 202 9.7 16.1 0.00 0.03 0.03 63 996.1
20260905000503 31 191 4.8 16.1 0.00 0.03 0.03 63 996.1
20260905000002 31 193 8.0 16.1 0.00 0.03 0.03 62 996.2
20260904235502 31 119 3.2 9.7 0.00 0.03 0.03 62 996.0
20260904235003 31 192 4.8 12.9 0.00 0.03 0.03 61 995.9
20260904234503 32 153 6.4 12.9 0.00 0.03 0.03 60 995.9
20260904234003 32 235 6.4 12.9 0.00 0.03 0.03 60 995.9
20260904233503 32 333 3.2 22.5 0.00 0.03 0.03 59 995.7
20260904233003 33 196 6.4 14.5 0.00 0.03 0.03 51 995.8
20260904232502 33 182 6.4 16.1 0.00 0.03 0.03 44 995.7
20260904232003 34 201 4.8 9.7 0.00 0.03 0.03 44 995.8
20260904231503 34 202 8.0 12.9 0.00 0.03 0.03 45 995.8
20260904231003 34 193 4.8 9.7 0.00 0.03 0.03 45 995.9
20260904230503 34 163 4.8 11.3 0.00 0.03 0.03 45 995.8
20260904230003 34 196 6.4 11.3 0.00 0.03 0.03 45 995.9
20260904225503 34 16 8.0 11.3 0.00 0.03 0.03 44 995.9
20260904225002 34 137 4.8 9.7 0.00 0.03 0.03 43 995.8
20260904224502 34 230 4.8 9.7 0.00 0.03 0.03 42 995.8
20260904224003 33 151 3.2 12.9 0.00 0.03 0.03 42 996.0
20260904223503 34 217 8.0 14.5 0.00 0.03 0.03 42 996.0
20260904223003 34 173 4.8 9.7 0.00 0.03 0.03 42 995.9
20260904222503 35 191 4.8 8.0 0.00 0.03 0.03 43 996.0
20260904222003 35 178 3.2 8.0 0.00 0.03 0.03 42 996.0
20260904221003 34 200 6.4 11.3 0.00 0.03 0.03 42 996.0
20260904220503 34 174 4.8 9.7 0.00 0.03 0.03 43 996.1
20260904220003 34 177 3.2 12.9 0.00 0.03 0.03 42 996.3
20260904215503 33 178 9.7 14.5 0.00 0.03 0.03 42 996.2
20260904215003 34 180 11.3 19.3 0.00 0.03 0.03 41 996.7
20260904214503 34 205 8.0 16.1 0.00 0.03 0.03 41 996.4
20260904214003 35 237 4.8 12.9 0.00 0.03 0.03 41 996.3
20260904213503 35 194 4.8 8.0 0.00 0.03 0.03 41 996.5
20260904213003 34 126 4.8 16.1 0.00 0.03 0.03 41 996.6
20260904212003 34 167 9.7 14.5 0.00 0.03 0.03 41 996.8
20260904211503 34 174 8.0 14.5 0.00 0.03 0.03 42 996.8
20260904211003 34 169 4.8 16.1 0.00 0.03 0.03 41 996.9
20260904210503 33 190 9.7 16.1 0.00 0.03 0.03 44 997.0
20260904210003 33 166 6.4 20.9 0.00 0.03 0.03 44 996.8
20260904205503 34 165 6.4 14.5 0.00 0.03 0.03 44 996.9
20260904205004 33 176 6.4 14.5 0.00 0.03 0.03 45 996.9
20260904204503 34 156 6.4 19.3 0.00 0.03 0.03 43 997.1
20260904204003 34 211 4.8 19.3 0.00 0.03 0.03 46 997.1
20260904203004 34 210 4.8 12.9 0.00 0.03 0.03 47 997.0
20260904202003 35 181 4.8 11.3 0.00 0.03 0.03 49 997.2
20260904201503 35 209 4.8 11.3 0.00 0.03 0.03 50 997.1
20260904200503 33 163 4.8 12.9 0.00 0.03 0.03 54 997.3
20260904200003 34 168 6.4 12.9 0.00 0.03 0.03 54 997.5
20260904195003 34 184 9.7 14.5 0.00 0.03 0.03 57 997.6
20260904194503 34 146 3.2 9.7 0.00 0.03 0.03 55 997.6
20260904193503 33 117 1.6 12.9 0.00 0.03 0.03 54 997.6
20260904193003 33 159 6.4 12.9 0.00 0.03 0.03 57 997.7
20260904192504 33 154 4.8 11.3 0.00 0.03 0.03 55 997.8
20260904191503 33 174 8.0 14.5 0.00 0.03 0.03 56 997.9
20260904191003 32 138 8.0 14.5 0.00 0.03 0.03 57 998.2
20260904190503 32 165 11.3 14.5 0.00 0.03 0.03 57 998.1
20260904190003 33 195 8.0 14.5 0.00 0.03 0.03 58 998.2
20260904185503 33 114 1.6 14.5 0.00 0.03 0.03 59 998.1
20260904185003 33 256 11.3 16.1 0.00 0.03 0.03 57 998.3
20260904184503 34 331 4.8 11.3 0.00 0.03 0.03 55 998.2
20260904184004 33 214 11.3 25.7 0.00 0.03 0.03 57 998.2
20260904183503 33 177 3.2 12.9 0.00 0.03 0.03 60 998.4
20260904183003 33 118 6.4 14.5 0.00 0.03 0.03 60 998.4
20260904182502 33 137 4.8 14.5 0.00 0.03 0.03 60 998.3
20260904182003 33 86 6.4 22.5 0.00 0.03 0.03 61 998.3
20260904181503 32 151 8.0 12.9 0.00 0.03 0.03 61 998.4
20260904181003 33 75 8.0 12.9 0.00 0.03 0.03 60 998.2
20260904180503 33 183 6.4 16.1 0.00 0.03 0.03 61 998.4
20260904180003 32 171 6.4 19.3 0.00 0.03 0.03 58 998.4
20260904175003 32 174 6.4 19.3 0.00 0.03 0.03 60 998.4
20260904174502 32 191 4.8 9.7 0.00 0.03 0.03 60 998.7
20260904174003 33 259 3.2 8.0 0.00 0.03 0.03 57 998.6
20260904173503 32 175 3.2 14.5 0.00 0.03 0.03 58 998.8
20260904173003 32 231 4.8 11.3 0.00 0.03 0.03 58 998.7
20260904172503 32 160 8.0 12.9 0.00 0.03 0.03 60 998.8
20260904172003 32 198 8.0 16.1 0.00 0.03 0.03 61 999.0
20260904171003 32 185 9.7 12.9 0.00 0.03 0.03 61 999.0
20260904170502 32 181 4.8 11.3 0.00 0.03 0.03 61 998.8
20260904170003 31 163 3.2 12.9 0.00 0.03 0.03 64 998.9
20260904165503 32 268 8.0 11.3 0.00 0.03 0.03 62 999.2
20260904165003 31 155 6.4 11.3 0.00 0.03 0.03 62 999.0
20260904164003 31 236 3.2 12.9 0.00 0.03 0.03 66 998.8
20260904163503 31 194 3.2 11.3 0.00 0.03 0.03 68 998.8
20260904162003 30 319 4.8 12.9 0.00 0.03 0.03 72 998.9
20260904161503 30 218 6.4 12.9 0.00 0.03 0.03 73 999.0
20260904161003 30 261 4.8 12.9 0.00 0.03 0.03 73 998.9
20260904160503 30 213 6.4 11.3 0.00 0.03 0.03 74 999.0
20260904160003 30 184 4.8 12.9 0.00 0.03 0.03 75 999.0
20260904155503 29 282 6.4 12.9 0.00 0.03 0.03 76 999.0
20260904154503 29 250 4.8 11.3 0.00 0.03 0.03 77 998.9
20260904154003 30 166 4.8 9.7 0.00 0.03 0.03 77 998.9
20260904153503 29 259 3.2 11.3 0.00 0.03 0.03 79 998.9
20260904153003 28 270 4.8 8.0 0.00 0.03 0.03 81 999.0
20260904152503 28 2 4.8 12.9 0.00 0.03 0.03 83 998.9
20260904152003 28 272 6.4 12.9 0.00 0.03 0.03 84 998.9
20260904151503 28 286 3.2 8.0 0.00 0.03 0.03 85 998.9
20260904151003 27 100 3.2 12.9 0.00 0.03 0.03 86 998.9
20260904150503 27 319 6.4 12.9 0.00 0.03 0.03 86 998.8
20260904150003 27 262 4.8 11.3 0.00 0.03 0.03 87 998.6
20260904145004 26 255 4.8 12.9 0.00 0.03 0.03 90 998.6
20260904144502 26 245 9.7 14.5 0.00 0.03 0.03 90 998.5
20260904144003 26 268 8.0 16.1 0.00 0.03 0.03 91 998.7
20260904143503 26 218 4.8 9.7 0.00 0.03 0.03 92 998.6
20260904143003 26 289 6.4 14.5 0.00 0.03 0.03 93 998.6
20260904142503 26 209 6.4 11.3 0.00 0.03 0.03 93 998.6
20260904142004 26 238 4.8 11.3 0.00 0.03 0.03 93 998.5
20260904141503 26 271 4.8 12.9 0.00 0.03 0.03 94 998.6
20260904141003 25 270 6.4 12.9 0.00 0.03 0.03 94 998.6
20260904140503 25 190 3.2 11.3 0.00 0.03 0.03 95 998.5
20260904135503 25 258 4.8 9.7 0.03 0.03 0.03 95 998.5
20260904135003 25 261 4.8 9.7 0.03 0.03 0.03 95 998.5
20260904134503 25 252 4.8 9.7 0.03 0.03 0.03 95 998.5
20260904134003 25 180 3.2 4.8 0.03 0.03 0.03 95 998.5
20260904133003 25 262 3.2 9.7 0.03 0.03 0.03 95 998.4
20260904132503 25 219 4.8 8.0 0.03 0.03 0.03 95 998.4
20260904132003 25 238 3.2 4.8 0.03 0.03 0.03 95 998.6
20260904131503 25 162 1.6 3.2 0.03 0.03 0.03 95 998.8
20260904131002 25 141 1.6 3.2 0.03 0.03 0.03 94 998.5
20260904130503 25 172 1.6 4.8 0.03 0.03 0.03 94 998.7
20260904130003 25 151 3.2 8.0 0.03 0.03 0.03 94 998.5
20260904125504 25 174 4.8 8.0 0.00 0.00 0.00 93 998.6
20260904124502 25 151 1.6 8.0 0.00 0.00 0.00 92 998.7
20260904123003 26 129 1.6 3.2 0.00 0.00 0.00 92 998.5
20260904122003 26 148 3.2 4.8 0.00 0.00 0.00 92 998.4
20260904121503 26 188 3.2 4.8 0.00 0.00 0.00 91 998.2
20260904121003 26 117 1.6 4.8 0.00 0.00 0.00 91 998.1
20260904120503 26 179 4.8 4.8 0.00 0.00 0.00 91 998.0
20260904120003 26 144 8.0 11.3 0.00 0.00 0.00 91 997.9
20260904115502 25 161 4.8 14.5 0.00 0.00 0.00 92 997.8
20260904115004 25 189 4.8 11.3 0.00 0.00 0.00 92 997.7
20260904114003 25 183 8.0 11.3 0.00 0.00 0.00 92 997.5
20260904113503 25 162 4.8 9.7 0.00 0.00 0.00 92 997.4
20260904113003 25 155 4.8 8.0 0.00 0.00 0.00 92 997.3
20260904112002 25 164 6.4 9.7 0.00 0.00 0.00 92 997.2
20260904111503 25 165 3.2 9.7 0.00 0.00 0.00 91 997.2
20260904111003 25 194 8.0 11.3 0.00 0.00 0.00 91 997.1
20260904110503 25 179 9.7 12.9 0.00 0.00 0.00 91 997.1
20260904110003 25 204 8.0 12.9 0.00 0.00 0.00 91 997.0
20260904105503 25 167 8.0 11.3 0.00 0.00 0.00 91 997.1
20260904105002 25 166 6.4 14.5 0.00 0.00 0.00 91 997.0
20260904104502 25 165 8.0 19.3 0.00 0.00 0.00 91 997.2
20260904104003 25 169 9.7 11.3 0.00 0.00 0.00 91 996.9
20260904103503 26 200 6.4 14.5 0.00 0.00 0.00 91 997.0
20260904103003 26 153 8.0 11.3 0.00 0.00 0.00 91 997.0
20260904102503 26 171 4.8 8.0 0.00 0.00 0.00 90 997.0
20260904102003 26 174 4.8 12.9 0.00 0.00 0.00 90 996.9
20260904101003 26 180 4.8 11.3 0.00 0.00 0.00 90 996.8
20260904100503 26 219 6.4 11.3 0.00 0.00 0.00 89 996.8
20260904100003 26 164 6.4 9.7 0.00 0.00 0.00 89 996.8
20260904095503 26 146 4.8 11.3 0.00 0.00 0.00 89 996.8
20260904095003 26 179 4.8 9.7 0.00 0.00 0.00 89 996.7
20260904094503 26 161 4.8 11.3 0.00 0.00 0.00 89 996.7
20260904094003 26 199 4.8 8.0 0.00 0.00 0.00 89 996.6
20260904093503 26 174 4.8 8.0 0.00 0.00 0.00 89 996.6
20260904093003 26 145 4.8 9.7 0.00 0.00 0.00 88 996.5
20260904092502 26 151 6.4 9.7 0.00 0.00 0.00 88 996.6
20260904092002 26 181 4.8 11.3 0.00 0.00 0.00 88 996.7
20260904091503 26 164 8.0 12.9 0.00 0.00 0.00 88 996.7
20260904091003 26 156 8.0 12.9 0.00 0.00 0.00 88 996.7
20260904090503 26 158 4.8 9.7 0.00 0.00 0.00 88 996.7
20260904090003 26 283 3.2 9.7 0.00 0.00 0.00 88 996.8
20260904085503 26 180 6.4 11.3 0.00 0.00 0.00 87 996.8
20260904085003 26 258 4.8 12.9 0.00 0.00 0.00 87 996.8
20260904084003 26 194 4.8 11.3 0.00 0.00 0.00 87 996.7
20260904083503 26 195 6.4 12.9 0.00 0.00 0.00 87 996.6
20260904082503 26 151 9.7 12.9 0.00 0.00 0.00 88 996.8
20260904082003 26 126 6.4 11.3 0.00 0.00 0.00 88 996.8
20260904081503 26 246 4.8 9.7 0.00 0.00 0.00 88 996.9
20260904081004 26 238 6.4 14.5 0.00 0.00 0.00 88 996.9
20260904080003 26 157 8.0 14.5 0.00 0.00 0.00 88 996.9
20260904075503 26 153 4.8 12.9 0.00 0.00 0.00 88 996.9
20260904075003 26 275 4.8 12.9 0.00 0.00 0.00 88 996.8
20260904074503 26 194 6.4 11.3 0.00 0.00 0.00 88 996.8
20260904074003 26 226 9.7 19.3 0.00 0.00 0.00 88 996.7
20260904073503 26 191 8.0 19.3 0.00 0.00 0.00 88 996.7
20260904073003 26 179 11.3 19.3 0.00 0.00 0.00 88 996.9
20260904072503 26 179 11.3 19.3 0.00 0.00 0.00 87 996.9
20260904072003 26 223 8.0 19.3 0.00 0.00 0.00 87 997.0
20260904071503 26 172 8.0 19.3 0.00 0.00 0.00 87 997.1
20260904071003 26 150 6.4 22.5 0.00 0.00 0.00 87 997.1
20260904070003 26 193 6.4 11.3 0.00 0.00 0.00 86 997.0
20260904065503 26 209 8.0 12.9 0.00 0.00 0.00 86 997.1
20260904065003 26 180 4.8 16.1 0.00 0.00 0.00 86 997.1
20260904063503 26 165 9.7 19.3 0.00 0.00 0.00 85 997.2
20260904063003 26 189 11.3 19.3 0.00 0.00 0.00 85 997.2
20260904062503 26 202 9.7 19.3 0.00 0.00 0.00 85 997.1
20260904062003 26 192 4.8 16.1 0.00 0.00 0.00 85 997.1
20260904060503 26 159 4.8 12.9 0.00 0.00 0.00 85 996.9
20260904060004 26 162 8.0 16.1 0.00 0.00 0.00 85 997.2
20260904055503 26 174 9.7 14.5 0.00 0.00 0.00 85 997.0
20260904055003 26 181 8.0 16.1 0.00 0.00 0.00 85 997.0
20260904054503 26 183 9.7 12.9 0.00 0.00 0.00 85 997.0
20260904053503 26 206 9.7 20.9 0.00 0.00 0.00 85 997.1
20260904053003 26 172 11.3 20.9 0.00 0.00 0.00 85 997.0
20260904052503 26 186 6.4 14.5 0.00 0.00 0.00 85 996.9
20260904051503 26 211 9.7 14.5 0.00 0.00 0.00 85 996.8
20260904051003 26 172 6.4 12.9 0.00 0.00 0.00 85 996.8
20260904050503 26 168 8.0 12.9 0.00 0.00 0.00 85 996.8
20260904050003 26 156 8.0 14.5 0.00 0.00 0.00 84 996.9
20260904045503 26 173 9.7 20.9 0.00 0.00 0.00 84 996.7
20260904045003 26 176 8.0 14.5 0.00 0.00 0.00 84 996.9
20260904044503 26 126 9.7 14.5 0.00 0.00 0.00 84 996.9
20260904044002 26 186 9.7 14.5 0.00 0.00 0.00 84 996.7
20260904043503 26 162 9.7 14.5 0.00 0.00 0.00 83 996.9
20260904043003 26 168 6.4 14.5 0.00 0.00 0.00 83 996.8
20260904042503 26 157 9.7 20.9 0.00 0.00 0.00 83 996.8
20260904042003 26 191 8.0 20.9 0.00 0.00 0.00 83 996.8
20260904041503 26 156 6.4 9.7 0.00 0.00 0.00 83 996.7
20260904041003 26 177 3.2 19.3 0.00 0.00 0.00 83 996.7
20260904040503 26 180 6.4 12.9 0.00 0.00 0.00 82 996.7